When you browse on this site, cookies collect data to enhance your experience and personalize the content and advertising you see.
Visit our Privacy Policy to learn more. By continuing to use the site, you agree to this use of cookies and data.
  • In Hungary
  • List of Countries
  • For 7 days
  • Water Temperature
  • Satellite Maps
  • Weather Map
  • News
  • Weather Widgets
  • user-avatar
    Login

    Hourly Weather Mezhdurechensk

    Today, 17 November, Saturday

    Time Temperature Precipitation Wind Pressure Humidity
    00:00 +3°C° 0 mm 2 mps 755 mmHg 97%
    01:00 +3°C° 0 mm 2 mps 754 mmHg 97%
    02:00 +3°C° 0 mm 2 mps 754 mmHg 97%
    03:00 +3°C° 0 mm 2 mps 754 mmHg 98%
    04:00 +3°C° 0.2 mm 2 mps 753 mmHg 97%
    05:00 +2°C° 0.2 mm 3 mps 752 mmHg 97%
    06:00 +2°C° 0.2 mm 3 mps 752 mmHg 97%
    07:00 +2°C° 0.2 mm 3 mps 751 mmHg 96%
    08:00 +2°C° 0.2 mm 3 mps 750 mmHg 96%
    09:00 +2°C° 0.2 mm 3 mps 749 mmHg 95%
    10:00 +2°C° 0.1 mm 3 mps 749 mmHg 95%
    11:00 +2°C° 0.1 mm 3 mps 748 mmHg 95%
    12:00 +2°C° 0.1 mm 3 mps 748 mmHg 95%
    13:00 +2°C° 0.3 mm 3 mps 747 mmHg 95%
    14:00 +2°C° 0.3 mm 3 mps 746 mmHg 96%
    15:00 +2°C° 0.3 mm 3 mps 746 mmHg 96%
    16:00 +2°C° 0.1 mm 3 mps 746 mmHg 96%
    17:00 +2°C° 0.1 mm 3 mps 745 mmHg 96%
    18:00 +2°C° 0.1 mm 3 mps 745 mmHg 96%
    19:00 +3°C° 0 mm 2 mps 745 mmHg 97%
    20:00 +3°C° 0 mm 2 mps 745 mmHg 97%
    21:00 +2°C° 0 mm 2 mps 745 mmHg 97%
    22:00 +2°C° 0.1 mm 2 mps 745 mmHg 97%
    23:00 +2°C° 0.1 mm 2 mps 745 mmHg 97%

    Tomorrow, 18 November, Sunday

    Time Temperature Precipitation Wind Pressure Humidity
    00:00 +2°C° 0.1 mm 2 mps 745 mmHg 98%
    01:00 +2°C° 0.1 mm 2 mps 745 mmHg 98%
    02:00 +2°C° 0.1 mm 2 mps 745 mmHg 98%
    03:00 +3°C° 0.1 mm 1 mps 745 mmHg 98%
    04:00 +2°C° 0.1 mm 1 mps 745 mmHg 98%
    05:00 +2°C° 0.1 mm 1 mps 746 mmHg 98%
    06:00 +2°C° 0.1 mm 1 mps 746 mmHg 98%
    07:00 +1°C° 0.1 mm 2 mps 746 mmHg 97%
    08:00 +1°C° 0.1 mm 2 mps 747 mmHg 97%
    09:00 +1°C° 0.1 mm 2 mps 747 mmHg 97%
    10:00 +1°C° 0 mm 2 mps 748 mmHg 96%
    11:00 +1°C° 0 mm 3 mps 749 mmHg 95%
    12:00 +1°C° 0 mm 3 mps 750 mmHg 93%
    13:00 0°C° 0.1 mm 4 mps 751 mmHg 91%
    14:00 -1°C° 0.1 mm 4 mps 752 mmHg 89%
    15:00 -1°C° 0.1 mm 5 mps 752 mmHg 86%
    16:00 -2°C° 0.1 mm 5 mps 753 mmHg 85%
    17:00 -4°C° 0.1 mm 5 mps 754 mmHg 83%
    18:00 -4°C° 0.1 mm 5 mps 755 mmHg 82%
    19:00 -5°C° 0 mm 5 mps 756 mmHg 81%
    20:00 -5°C° 0 mm 5 mps 757 mmHg 80%
    21:00 -5°C° 0 mm 5 mps 757 mmHg 80%
    22:00 -5°C° 0 mm 4 mps 758 mmHg 80%
    23:00 -5°C° 0 mm 4 mps 759 mmHg 80%

    Day after tomorrow, 19 November, Monday

    Time Temperature Precipitation Wind Pressure Humidity
    00:00 -5°C° 0 mm 4 mps 759 mmHg 79%
    01:00 -7°C° 0 mm 4 mps 760 mmHg 78%
    02:00 -7°C° 0 mm 4 mps 760 mmHg 77%
    03:00 -8°C° 0 mm 4 mps 761 mmHg 76%
    04:00 -7°C° 0 mm 3 mps 761 mmHg 74%
    05:00 -7°C° 0 mm 3 mps 761 mmHg 72%
    06:00 -7°C° 0 mm 3 mps 762 mmHg 70%
    07:00 -7°C° 0 mm 3 mps 762 mmHg 68%
    08:00 -6°C° 0 mm 2 mps 762 mmHg 65%
    09:00 -7°C° 0 mm 2 mps 762 mmHg 63%
    10:00 -6°C° 0 mm 2 mps 762 mmHg 61%
    11:00 -6°C° 0 mm 2 mps 763 mmHg 60%
    12:00 -6°C° 0 mm 2 mps 763 mmHg 58%
    13:00 -6°C° 0 mm 2 mps 762 mmHg 62%
    14:00 -5°C° 0 mm 2 mps 762 mmHg 65%
    15:00 -5°C° 0 mm 2 mps 762 mmHg 69%
    16:00 -5°C° 0 mm 2 mps 762 mmHg 71%
    17:00 -6°C° 0 mm 3 mps 762 mmHg 73%
    18:00 -5°C° 0 mm 3 mps 761 mmHg 75%
    19:00 -5°C° 0 mm 3 mps 761 mmHg 77%
    20:00 -5°C° 0 mm 3 mps 760 mmHg 79%
    21:00 -5°C° 0 mm 3 mps 760 mmHg 80%
    22:00 -5°C° 0 mm 3 mps 759 mmHg 82%
    23:00 -5°C° 0 mm 3 mps 759 mmHg 83%

    20 November, Tuesday

    Time Temperature Precipitation Wind Pressure Humidity
    00:00 -5°C° 0 mm 3 mps 758 mmHg 85%
    01:00 -4°C° 0 mm 4 mps 758 mmHg 85%
    02:00 -4°C° 0 mm 4 mps 757 mmHg 86%
    03:00 -4°C° 0 mm 4 mps 757 mmHg 86%
    04:00 -4°C° 0 mm 4 mps 756 mmHg 84%
    05:00 -4°C° 0 mm 4 mps 755 mmHg 82%
    06:00 -4°C° 0 mm 4 mps 754 mmHg 79%
    07:00 -4°C° 0 mm 4 mps 753 mmHg 79%
    08:00 -4°C° 0 mm 4 mps 752 mmHg 80%
    09:00 -5°C° 0 mm 4 mps 752 mmHg 80%
    10:00 -5°C° 0 mm 5 mps 751 mmHg 76%
    11:00 -5°C° 0 mm 5 mps 750 mmHg 72%
    12:00 -5°C° 0 mm 5 mps 750 mmHg 68%
    13:00 -5°C° 0 mm 5 mps 749 mmHg 70%
    14:00 -6°C° 0 mm 5 mps 749 mmHg 71%
    15:00 -6°C° 0 mm 5 mps 748 mmHg 72%
    16:00 -6°C° 0.1 mm 5 mps 748 mmHg 75%
    17:00 -6°C° 0.1 mm 5 mps 747 mmHg 78%
    18:00 -6°C° 0.1 mm 5 mps 747 mmHg 81%
    19:00 -6°C° 0.1 mm 5 mps 747 mmHg 82%
    20:00 -4°C° 0.1 mm 4 mps 746 mmHg 82%
    21:00 -4°C° 0.1 mm 4 mps 746 mmHg 83%
    22:00 -3°C° 0 mm 4 mps 746 mmHg 84%
    23:00 -3°C° 0 mm 4 mps 746 mmHg 85%

    21 November, Wednesday

    Time Temperature Precipitation Wind Pressure Humidity
    00:00 -2°C° 0 mm 5 mps 746 mmHg 86%
    01:00 -4°C° 0.1 mm 5 mps 746 mmHg 82%
    02:00 -4°C° 0.1 mm 5 mps 747 mmHg 78%
    03:00 -4°C° 0.1 mm 5 mps 747 mmHg 75%
    04:00 -5°C° 0 mm 5 mps 747 mmHg 73%
    05:00 -5°C° 0 mm 4 mps 747 mmHg 72%
    06:00 -5°C° 0 mm 4 mps 748 mmHg 71%
    07:00 -7°C° 0 mm 4 mps 748 mmHg 70%
    08:00 -7°C° 0 mm 4 mps 748 mmHg 69%
    09:00 -7°C° 0 mm 4 mps 748 mmHg 68%
    10:00 -7°C° 0 mm 5 mps 749 mmHg 66%
    11:00 -7°C° 0 mm 5 mps 749 mmHg 64%
    12:00 -7°C° 0 mm 5 mps 749 mmHg 62%
    13:00 -8°C° 0 mm 4 mps 749 mmHg 63%
    14:00 -8°C° 0 mm 4 mps 749 mmHg 65%
    15:00 -7°C° 0 mm 3 mps 748 mmHg 67%
    16:00 -7°C° 0 mm 3 mps 748 mmHg 72%
    17:00 -7°C° 0 mm 3 mps 748 mmHg 77%
    18:00 -7°C° 0 mm 3 mps 747 mmHg 82%
    19:00 -7°C° 0.1 mm 3 mps 747 mmHg 84%
    20:00 -6°C° 0.1 mm 2 mps 747 mmHg 87%
    21:00 -6°C° 0.1 mm 2 mps 746 mmHg 89%
    22:00 -6°C° 0.1 mm 2 mps 746 mmHg 90%
    23:00 -6°C° 0.1 mm 2 mps 745 mmHg 91%

    22 November, Thursday

    Time Temperature Precipitation Wind Pressure Humidity
    00:00 -6°C° 0.1 mm 2 mps 745 mmHg 92%
    01:00 -7°C° 0 mm 2 mps 745 mmHg 92%
    02:00 -7°C° 0 mm 2 mps 745 mmHg 92%
    03:00 -7°C° 0 mm 2 mps 744 mmHg 92%
    04:00 -8°C° 0 mm 2 mps 744 mmHg 91%
    05:00 -8°C° 0 mm 2 mps 744 mmHg 91%
    06:00 -8°C° 0 mm 2 mps 744 mmHg 91%
    07:00 -8°C° 0 mm 2 mps 744 mmHg 90%
    08:00 -9°C° 0 mm 3 mps 745 mmHg 88%
    09:00 -9°C° 0 mm 3 mps 745 mmHg 87%
    10:00 -8°C° 0 mm 3 mps 745 mmHg 84%
    11:00 -8°C° 0 mm 3 mps 746 mmHg 81%
    12:00 -7°C° 0 mm 3 mps 746 mmHg 78%
    13:00 -8°C° 0 mm 3 mps 746 mmHg 80%
    14:00 -8°C° 0 mm 3 mps 746 mmHg 82%
    15:00 -8°C° 0 mm 3 mps 746 mmHg 83%
    16:00 -8°C° 0 mm 3 mps 746 mmHg 84%
    17:00 -9°C° 0 mm 3 mps 746 mmHg 85%
    18:00 -8°C° 0 mm 2 mps 746 mmHg 86%
    19:00 -9°C° 0 mm 3 mps 746 mmHg 86%
    20:00 -9°C° 0 mm 3 mps 746 mmHg 87%
    21:00 -9°C° 0 mm 3 mps 747 mmHg 87%
    22:00 -9°C° 0 mm 3 mps 747 mmHg 87%
    23:00 -9°C° 0 mm 3 mps 747 mmHg 88%
    Show more